User: anonymous
Location: Caltech
(34.1382°N, 118.1253°W)
Time: 15:08:13
(UTC-07:00)
Language:

Cosmos 1980 Rocket - Orbit

View from above orbital plane
View from above orbital plane
View from above satellite
View from above satellite

Ground track
Ground track

The orbit data is extracted from the following two-line orbital elements,

1 19650U 88102B   14113.44527269 -.00000024  00000-0  12295-4 0  2666
2 19650 070.9996 274.6107 0012651 139.9237 251.2847 14.15657377313135
Epoch (UTC): 23 April 2014 10:41:11
Eccentricity: 0.0012651
inclination: 70.9996°
perigee height: 831 km
apogee height: 849 km
right ascension of ascending node: 274.6107°
argument of perigee: 139.9237°
revolutions per day: 14.15657377
mean anomaly at epoch: 251.2847°
orbit number at epoch: 31313

The dashed part of the orbit path shows where the satellite is in the earth's shadow,  

DLR